Time_in_sec,Mx,My,Mz
1312472464.24443626,0.28120100,-0.35526946,-0.68589568
1312472464.29629135,0.28328449,-0.35183188,-0.68727952
1312472464.34462619,0.28031576,-0.35578284,-0.68473345
1312472464.39251709,0.28165406,-0.35446793,-0.68963861
1312472464.44336319,0.27841574,-0.35589272,-0.68443912
1312472464.49250388,0.28272903,-0.35526523,-0.68782341
1312472464.54451370,0.28191832,-0.35490084,-0.68531948
1312472464.59652615,0.28146386,-0.35476056,-0.68601876
1312472464.64444685,0.28015682,-0.35513994,-0.68501621
1312472464.69645357,0.28261602,-0.35424885,-0.68729997
1312472464.74451208,0.27959418,-0.35574359,-0.68759769
1312472464.79245949,0.28052753,-0.35307300,-0.68769825
1312472464.84329724,0.28255713,-0.35683575,-0.68405849
1312472464.89579535,0.27908897,-0.35523605,-0.68682432
1312472464.94331646,0.28092706,-0.35733017,-0.68388015
1312472464.99596477,0.28189591,-0.35413191,-0.68559533
1312472465.04344678,0.27994475,-0.35601613,-0.68636584
1312472465.09242868,0.28170207,-0.35333019,-0.68870366
1312472465.14329672,0.28132126,-0.35412082,-0.68603176
1312472465.19634271,0.28048372,-0.35563809,-0.68647194
1312472465.24330330,0.28073040,-0.35604289,-0.68470752
1312472465.29640508,0.28005484,-0.35461068,-0.68663883
1312472465.34333324,0.28130606,-0.35618162,-0.68427002
1312472465.39633870,0.28186923,-0.35295513,-0.68815923
1312472465.44328070,0.28229815,-0.35693833,-0.68608862
1312472465.49633694,0.28025854,-0.35383558,-0.68770802
1312472465.54328871,0.28303286,-0.35568097,-0.68511486
1312472465.59633374,0.28089538,-0.35449576,-0.68632233
1312472465.64338207,0.27926618,-0.35715678,-0.68639648
1312472465.69642282,0.28149524,-0.35576135,-0.68789095
1312472465.74435735,0.28116933,-0.35641032,-0.68656093
1312472465.79643416,0.28132212,-0.35333163,-0.68818796
1312472465.84330535,0.28058368,-0.35591209,-0.68485135
1312472465.89644074,0.28151882,-0.35359943,-0.68723387
1312472465.94334364,0.27904117,-0.35627112,-0.68547535
1312472465.99642444,0.27968788,-0.35535449,-0.68826717
1312472466.04337335,0.28171250,-0.35348433,-0.68628275
1312472466.09643388,0.28110316,-0.35321173,-0.68726075
1312472466.14343333,0.27943313,-0.35688442,-0.68813598
1312472466.19643617,0.28364417,-0.35325307,-0.68603855
1312472466.24444532,0.28042662,-0.35460767,-0.68728936
1312472466.29642463,0.28151572,-0.35423604,-0.68736362
1312472466.34335566,0.27785519,-0.35573214,-0.68689185
1312472466.39642406,0.28151262,-0.35487261,-0.68749344
1312472466.44331264,0.27849609,-0.35690287,-0.68550211
1312472466.49642968,0.28166750,-0.35500497,-0.68721473
1312472466.54313302,0.27919695,-0.35459480,-0.68722606
1312472466.59644365,0.28133434,-0.35384372,-0.68804902
1312472466.64443803,0.27881181,-0.35599706,-0.68696898
1312472466.69540095,0.28104475,-0.35419530,-0.69061661
1312472466.74443746,0.28030130,-0.35511816,-0.68715835
1312472466.79646635,0.28002319,-0.35473204,-0.68717730
1312472466.84331632,0.28012493,-0.35638347,-0.68796539
1312472466.89636087,0.28211948,-0.35509530,-0.69108540
1312472466.94446754,0.27938133,-0.35638949,-0.68666434
1312472466.99640751,0.28164512,-0.35423607,-0.68749058
1312472467.04442906,0.28283390,-0.35526058,-0.68835497
1312472467.09644198,0.28173345,-0.35433096,-0.69057584
1312472467.14444661,0.28048980,-0.35640386,-0.68646586
1312472467.19541264,0.27969891,-0.35482213,-0.69028646
1312472467.24347949,0.28056693,-0.35611430,-0.68968904
1312472467.29645681,0.28281966,-0.35449323,-0.68849593
1312472467.34444571,0.28106934,-0.35613629,-0.68818152
1312472467.39648700,0.28237617,-0.35585958,-0.69146800
1312472467.44342542,0.28058031,-0.35767084,-0.68739188
1312472467.49645972,0.28275913,-0.35328525,-0.69388431
1312472467.54430652,0.28065160,-0.35651281,-0.68833721
1312472467.59646010,0.28050783,-0.35482863,-0.69050848
1312472467.64330387,0.27902874,-0.35586169,-0.68789828
1312472467.69534874,0.28391457,-0.35600954,-0.69097483
1312472467.74443674,0.27981603,-0.35532957,-0.69067907
1312472467.79543591,0.28127688,-0.35597441,-0.69153064
1312472467.84329367,0.28143495,-0.35740647,-0.68909162
1312472467.89637637,0.28033668,-0.35367364,-0.69093025
1312472467.94441414,0.28163475,-0.35703769,-0.68800771
1312472467.99234176,0.28172421,-0.35522124,-0.69083846
1312472468.04348636,0.27975884,-0.35633811,-0.69174999
1312472468.09643507,0.28212962,-0.35637158,-0.69107521
1312472468.14435029,0.28148985,-0.35726482,-0.69043344
1312472468.19636726,0.28060144,-0.35545900,-0.69130474
1312472468.24431038,0.28178519,-0.35584536,-0.69217420
1312472468.29636741,0.28359786,-0.35281244,-0.69128591
1312472468.34435821,0.28200734,-0.35726497,-0.69094115
1312472468.39230871,0.28148878,-0.35418141,-0.69233823
1312472468.44330478,0.28009835,-0.35714301,-0.68849885
1312472468.49235463,0.28206027,-0.35584858,-0.69215828
1312472468.54732156,0.27857926,-0.35442328,-0.69062293
1312472468.59644341,0.28233236,-0.35444939,-0.69201869
1312472468.64331436,0.27832034,-0.35748166,-0.69074929
1312472468.69643545,0.28203893,-0.35418782,-0.69230640
1312472468.74332070,0.28182217,-0.35523999,-0.68921995
1312472468.79643536,0.28392589,-0.35435501,-0.69058341
1312472468.84341788,0.28043452,-0.35573137,-0.68956518
1312472468.89530945,0.27943382,-0.35517842,-0.69244939
1312472468.94335699,0.28069744,-0.35817826,-0.68778449
1312472468.99586678,0.28159368,-0.35417676,-0.69286978
1312472469.04368567,0.28151551,-0.35433868,-0.68964761
1312472469.09643030,0.28350326,-0.35103494,-0.69036400
1312472469.14329481,0.27839395,-0.35841253,-0.68737817
1312472469.19629765,0.28090906,-0.35750741,-0.69100279
1312472469.24443054,0.28187305,-0.35754359,-0.68866211
1312472469.29643536,0.28197175,-0.35483685,-0.69123024
1312472469.34409332,0.27751267,-0.35750014,-0.68824232
1312472469.39642835,0.28189346,-0.35408199,-0.69016528
1312472469.44430280,0.28163683,-0.35627347,-0.68787891
1312472469.49532366,0.28041616,-0.35547298,-0.68983698
1312472469.54436517,0.28230312,-0.35564020,-0.68811399
1312472469.59532309,0.27925056,-0.35544765,-0.69097966
1312472469.64336133,0.27882272,-0.35750365,-0.68924177
1312472469.69528198,0.28144637,-0.35371301,-0.68844676
1312472469.74330926,0.28018400,-0.35471338,-0.68904972
1312472469.79630446,0.28065678,-0.35511202,-0.68807864
1312472469.84331369,0.28038085,-0.35589799,-0.68593836
1312472469.89643455,0.28057393,-0.35507143,-0.69171238
1312472469.94330859,0.27998728,-0.35842082,-0.68822688
1312472469.99530602,0.28096962,-0.35474014,-0.68739140
1312472470.04336762,0.28065449,-0.35597891,-0.69049138
1312472470.09533048,0.28050494,-0.35536253,-0.68835431
1312472470.14331746,0.28017384,-0.35741234,-0.68728286
1312472470.19647193,0.28182432,-0.35345629,-0.68896443
1312472470.24332881,0.27974677,-0.35674283,-0.68973172
1312472470.29541373,0.28194353,-0.35615528,-0.68732452
1312472470.34445620,0.27888614,-0.35522193,-0.68791127
1312472470.39542365,0.28004342,-0.35432887,-0.68906069
1312472470.44348001,0.27925268,-0.35763922,-0.68894714
1312472470.49533701,0.28162664,-0.35601664,-0.68801582
1312472470.54740262,0.28070036,-0.35662487,-0.68981189
1312472470.59541368,0.28229085,-0.35614759,-0.68837965
1312472470.64330316,0.28093916,-0.35590595,-0.68577164
1312472470.69243121,0.28207394,-0.35230771,-0.68922740
1312472470.74332786,0.28011671,-0.35740140,-0.68822706
1312472470.79642534,0.28133434,-0.35384372,-0.68804902
1312472470.84350038,0.27950969,-0.35626191,-0.68679231
1312472470.89642763,0.28185177,-0.35486335,-0.68868345
1312472470.94329500,0.28044891,-0.35741553,-0.68726701
1312472470.99644518,0.27984580,-0.35586974,-0.68798542
1312472471.04435015,0.28239176,-0.35461295,-0.68878853
1312472471.09239149,0.27955857,-0.35433498,-0.68801349
1312472471.14359403,0.27855194,-0.35790831,-0.68696964
1312472471.19237471,0.28295833,-0.35655877,-0.68645650
1312472471.24457049,0.28147998,-0.35486636,-0.68803293
1312472471.29638290,0.27897367,-0.35508654,-0.68871361
1312472471.34426332,0.27862737,-0.35919711,-0.68588042
1312472471.39637089,0.28231439,-0.35500517,-0.68784934
1312472471.44328070,0.28157169,-0.35717776,-0.68680072
1312472471.49636793,0.28166437,-0.35268578,-0.68924820
1312472471.54434657,0.28127804,-0.35701886,-0.68937236
1312472471.59643531,0.28193837,-0.35358083,-0.68936008
1312472471.64430237,0.28013918,-0.35715082,-0.68782443
1312472471.69642425,0.28065273,-0.35460147,-0.68808270
1312472471.74328017,0.28108567,-0.35613942,-0.68791175
1312472471.79642749,0.28078717,-0.35523969,-0.68820453
1312472471.84328103,0.28222367,-0.35679665,-0.68730354
1312472471.89644146,0.28181124,-0.35373339,-0.68694717
1312472471.94329524,0.27899718,-0.35791937,-0.68640625
1312472471.99642229,0.28243890,-0.35426438,-0.68569738
1312472472.04345798,0.27936810,-0.35574976,-0.68680435
1312472472.09635067,0.27986622,-0.35536391,-0.68758482
1312472472.14442754,0.28160945,-0.35680270,-0.68612939
1312472472.19640255,0.28038380,-0.35434458,-0.68796575
1312472472.24334097,0.28301349,-0.35529497,-0.68538767
1312472472.29643393,0.28368455,-0.35346621,-0.68993205
1312472472.34328079,0.27849889,-0.35738841,-0.68778300
1312472472.39642692,0.28097063,-0.35486776,-0.68739039
1312472472.44434857,0.28340864,-0.35720798,-0.68588805
1312472472.49643660,0.28065968,-0.35457808,-0.69023281
1312472472.54330134,0.28070164,-0.35563034,-0.68740016
1312472472.59642529,0.28005180,-0.35422778,-0.68664187
1312472472.64340091,0.28094327,-0.35539702,-0.68564087
1312472472.69642234,0.28097069,-0.35384828,-0.68726361
1312472472.74442267,0.28184479,-0.35590625,-0.68666011
1312472472.79644179,0.28198859,-0.35361516,-0.68626583
1312472472.84332657,0.27806810,-0.35804203,-0.68592143
1312472472.89645934,0.28172773,-0.35437933,-0.68614078
1312472472.94339728,0.28106955,-0.35603362,-0.68589759
1312472472.99642324,0.28330070,-0.35387397,-0.68726325
1312472473.04331279,0.28113768,-0.35653168,-0.68709946
1312472473.09643316,0.28176942,-0.35359794,-0.68762255
1312472473.14335155,0.28074768,-0.35719314,-0.68456352
1312472473.19643044,0.28102583,-0.35360396,-0.68632150
1312472473.24336410,0.27962700,-0.35666665,-0.68490094
1312472473.29642940,0.28066111,-0.35450038,-0.68566388
1312472473.34341264,0.28051952,-0.35796353,-0.68389893
1312472473.39634299,0.28392020,-0.35440341,-0.68614835
1312472473.44627166,0.27945283,-0.35512879,-0.68532574
1312472473.49535751,0.28211710,-0.35440442,-0.68423653
1312472473.54332757,0.28018025,-0.35603648,-0.68473935
1312472473.59541035,0.28260005,-0.35210410,-0.68503231
1312472473.64336681,0.27873769,-0.35666952,-0.68374276
1312472473.69632888,0.28275150,-0.35501465,-0.68742079
1312472473.74333477,0.28010693,-0.35693923,-0.68379605
1312472473.79642129,0.28209975,-0.35427365,-0.68450731
1312472473.84343433,0.28165460,-0.35619888,-0.68304026
1312472473.89542150,0.28237170,-0.35195765,-0.68652493
1312472473.94329286,0.28130609,-0.35913742,-0.68236631
1312472473.99243474,0.28042781,-0.35565212,-0.68513113
1312472474.04446888,0.28033829,-0.35451278,-0.68420410
1312472474.09640169,0.28264478,-0.35466138,-0.68460733
1312472474.14327621,0.28090966,-0.35821891,-0.68427765
1312472474.19527197,0.28252262,-0.35351580,-0.68421984
1312472474.24328709,0.28041148,-0.35564899,-0.68540090
1312472474.29567385,0.28092486,-0.35615811,-0.68603939
1312472474.34328747,0.28080460,-0.35730675,-0.68590331
1312472474.39639330,0.28131512,-0.35437453,-0.68616462
1312472474.44330192,0.28050610,-0.35640699,-0.68619609
1312472474.49630809,0.28148511,-0.35448503,-0.68790114
1312472474.54331303,0.28105423,-0.35615814,-0.68616629
1312472474.59639573,0.28315595,-0.35501790,-0.68753183
1312472474.64442420,0.27940249,-0.35713342,-0.68867350
1312472474.69642711,0.28190291,-0.35308903,-0.68761867
1312472474.73628116,0.28132734,-0.35488659,-0.68602568
1312472474.79643202,0.28058091,-0.35800380,-0.69195879
1312472474.83629251,0.28011361,-0.35803798,-0.68835682
1312472474.89644194,0.27927387,-0.35838318,-0.69095623
1312472474.93531036,0.27996406,-0.35742164,-0.68621975
1312472474.99630451,0.28023562,-0.35826674,-0.69090158
1312472475.03585696,0.28237334,-0.35537404,-0.68918711
1312472475.08442760,0.28047296,-0.35762554,-0.69143027
1312472475.13547373,0.28268671,-0.35635459,-0.69319350
1312472475.18741679,0.28002894,-0.35763946,-0.68970865
1312472475.23642778,0.28209376,-0.35506564,-0.69377500
1312472475.28802872,0.28030464,-0.35695612,-0.69413292
1312472475.33665180,0.28259906,-0.35455370,-0.69442165
1312472475.38742328,0.27996346,-0.35671014,-0.69294488
1312472475.43530488,0.28219253,-0.35531467,-0.69443941
1312472475.48429012,0.28002343,-0.35720664,-0.69428164
1312472475.53688788,0.28239825,-0.35479486,-0.69550657
1312472475.58730364,0.28099024,-0.35772836,-0.69422191
1312472475.63530302,0.28363326,-0.35432371,-0.69315404
1312472475.68441868,0.28176773,-0.35775357,-0.69269848
1312472475.73531985,0.28104937,-0.35503879,-0.69517946
1312472475.78438568,0.28206629,-0.35763383,-0.69227892
1312472475.83531904,0.28238896,-0.35670462,-0.69589597
1312472475.88430190,0.27924916,-0.35848114,-0.69364482
1312472475.93528414,0.27994180,-0.35719100,-0.69563043
1312472475.98742127,0.28039098,-0.35679576,-0.69722021
1312472476.03929305,0.28159434,-0.35644600,-0.69540620
1312472476.08843517,0.28108895,-0.35899690,-0.69501305
1312472476.13627839,0.28210568,-0.35374409,-0.69795048
1312472476.18741179,0.28126124,-0.35824054,-0.69433683
1312472476.23531437,0.28125200,-0.35515556,-0.69637644
1312472476.28742695,0.28074357,-0.35732356,-0.69598633
1312472476.33532095,0.28103796,-0.35475701,-0.69760132
1312472476.38730097,0.28146097,-0.35889122,-0.69337964
1312472476.43534207,0.28110313,-0.35680845,-0.69677579
1312472476.48741674,0.28215569,-0.35683689,-0.69523644
1312472476.53658271,0.28023204,-0.35615289,-0.69750303
1312472476.58735561,0.28204253,-0.35887891,-0.69509327
1312472476.63529110,0.28143117,-0.35539526,-0.69797701
1312472476.68351054,0.27993771,-0.35769996,-0.69576126
1312472476.73529434,0.28208324,-0.35695043,-0.69644934
1312472476.78740931,0.27956468,-0.35767800,-0.69739568
1312472476.83532119,0.28184989,-0.35514638,-0.69782031
1312472476.88742042,0.28125921,-0.35798526,-0.69433886
1312472476.93630958,0.28264666,-0.35362130,-0.69805455
1312472476.99233198,0.28068340,-0.35692972,-0.69693351
1312472477.03630567,0.28037092,-0.35811576,-0.69317961
1312472477.08744287,0.27937123,-0.35769042,-0.69606280
1312472477.13533831,0.28190401,-0.35477442,-0.69687921
1312472477.18432498,0.28104004,-0.35796803,-0.69569558
1312472477.23530555,0.28200877,-0.35680875,-0.69766426
1312472477.28437638,0.27956879,-0.35716903,-0.69726491
1312472477.33630538,0.28170133,-0.35567713,-0.69580901
1312472477.38733292,0.28122425,-0.35884592,-0.69729108
1312472477.43529606,0.28150052,-0.35591829,-0.69689393
1312472477.48734140,0.28266183,-0.35951102,-0.69626230
1312472477.53930712,0.28142828,-0.35592920,-0.69582283
1312472477.58832622,0.28032908,-0.35798031,-0.69385499
1312472477.63528609,0.28307766,-0.35684028,-0.69585514
1312472477.68431473,0.28051746,-0.35732973,-0.69519299
1312472477.73537731,0.28182650,-0.35424984,-0.69809717
1312472477.78734398,0.28079557,-0.35771582,-0.69517398
1312472477.83637667,0.28077835,-0.35554612,-0.69519132
1312472477.88403964,0.28016296,-0.35848299,-0.69439840
1312472477.93661308,0.28188869,-0.35489893,-0.69714797
1312472477.98415136,0.28227174,-0.35823616,-0.69575679
1312472478.03927040,0.28289834,-0.35568374,-0.69641179
1312472478.08444095,0.28151086,-0.35709193,-0.69459981
1312472478.13628697,0.28304917,-0.35530558,-0.69613713
1312472478.19652319,0.28107262,-0.35899377,-0.69528282
1312472478.23637271,0.28279278,-0.35739440,-0.69156682
1312472478.28741121,0.28150371,-0.35721800,-0.69473368
1312472478.33628178,0.28179696,-0.35656276,-0.69660318
1312472478.38431382,0.28151575,-0.36078852,-0.69497496
1312472478.43641949,0.28093296,-0.35680062,-0.69732326
1312472478.48844290,0.28096551,-0.35884583,-0.69703722
1312472478.53532267,0.28323767,-0.35659131,-0.69544458
1312472478.59628344,0.28015068,-0.35899037,-0.69466412
1312472478.63632941,0.28178513,-0.35686484,-0.69230098
1312472478.68745923,0.28110731,-0.35925528,-0.69474125
1312472478.73642421,0.28236547,-0.35682759,-0.69629955
1312472478.78432393,0.27989492,-0.35641742,-0.69631094
1312472478.83647132,0.28204677,-0.35633099,-0.69470894
1312472478.88729572,0.28159633,-0.35772076,-0.69553089
1312472478.93528056,0.28258961,-0.35554665,-0.69696820
1312472478.98854113,0.28086275,-0.35706678,-0.69625014
1312472479.03636169,0.28146389,-0.35733783,-0.69540703
1312472479.08742762,0.28044415,-0.35823250,-0.69424963
1312472479.13547921,0.28198761,-0.35606480,-0.69565517
1312472479.18827677,0.28121239,-0.35914797,-0.69298887
1312472479.23649335,0.28335279,-0.35582399,-0.69571251
1312472479.28831720,0.28104004,-0.35796803,-0.69569558
1312472479.33536410,0.28303370,-0.35451326,-0.69856310
1312472479.38836074,0.28164017,-0.35811147,-0.69485348
1312472479.43531227,0.28118381,-0.35567698,-0.69530129
1312472479.48835993,0.28213847,-0.35864243,-0.69347674
1312472479.53529644,0.28172779,-0.35695657,-0.69552904
1312472479.58731556,0.28045321,-0.36040065,-0.69436723
1312472479.63928604,0.28200591,-0.35734266,-0.69551009
1312472479.68743396,0.28108287,-0.35823113,-0.69501913
1312472479.73629832,0.28256017,-0.35684010,-0.69534749
1312472479.78439069,0.28301251,-0.35774457,-0.69477695
1312472479.83533025,0.28099105,-0.35795867,-0.69650483
1312472479.88833189,0.27958643,-0.35913345,-0.69267970
1312472479.93631887,0.28179929,-0.35569590,-0.69419044
1312472479.98741102,0.28130391,-0.35758680,-0.69581759
1312472480.03528500,0.28051531,-0.35911343,-0.69544846
1312472480.08442330,0.28056324,-0.36001468,-0.69476700
1312472480.13630128,0.28367472,-0.35364503,-0.69691986
1312472480.19633007,0.28040740,-0.35873520,-0.69492000
1312472480.23632717,0.28152719,-0.35709506,-0.69433004
1312472480.28743839,0.28012416,-0.35873044,-0.69507074
1312472480.33532500,0.27990410,-0.35654661,-0.69617504
1312472480.38434982,0.28142205,-0.36117765,-0.69430548
1312472480.43528438,0.28270483,-0.35671565,-0.69520563
1312472480.48729253,0.28053790,-0.35682389,-0.69479239
1312472480.53638911,0.28235742,-0.35876232,-0.69440395
1312472480.58727813,0.28051138,-0.36053920,-0.69342208
1312472480.63628936,0.28081176,-0.35680214,-0.69706148
1312472480.68435669,0.28143033,-0.35914025,-0.69391710
1312472480.73534369,0.28331298,-0.35594380,-0.69638586
1312472480.78472805,0.28165933,-0.35860014,-0.69686460
1312472480.83531260,0.28220057,-0.35735521,-0.69455796
1312472480.88443351,0.28006515,-0.35938105,-0.69385976
1312472480.93627071,0.28326494,-0.35412577,-0.69922459
1312472480.98436666,0.28124079,-0.35874638,-0.69473737
1312472481.03529930,0.28204954,-0.35783604,-0.69711661
1312472481.08441710,0.28120503,-0.35937670,-0.69540668
1312472481.13540459,0.28242469,-0.35607430,-0.69522667
1312472481.18429828,0.28142425,-0.35837445,-0.69392318
1312472481.23641109,0.28192934,-0.35796520,-0.69685382
1312472481.28492284,0.28181627,-0.35796827,-0.69645709
1312472481.33535457,0.28262022,-0.35529765,-0.69643074
1312472481.39646482,0.28186926,-0.35950765,-0.69577050
1312472481.43531418,0.28045654,-0.35966140,-0.69195348
1312472481.48443460,0.28078842,-0.35784191,-0.69530785
1312472481.53528380,0.28250301,-0.35682917,-0.69629163
1312472481.58396792,0.28004161,-0.36052346,-0.69439012
1312472481.63651180,0.28386313,-0.35595021,-0.69635403
1312472481.68442130,0.28024226,-0.35936549,-0.69546235
1312472481.73635292,0.28246942,-0.35567582,-0.69670540
1312472481.78436804,0.28233710,-0.35722917,-0.69455105
1312472481.83635283,0.28191307,-0.35694259,-0.69699681
1312472481.88443017,0.27991849,-0.35823077,-0.69387686
1312472481.93637252,0.28331798,-0.35760143,-0.69650751
1312472481.98745131,0.28111434,-0.35719293,-0.69663787
1312472482.03528214,0.28142613,-0.35771289,-0.69607836
1312472482.08443618,0.28087303,-0.35925990,-0.69408280
1312472482.13549018,0.28181425,-0.35771301,-0.69645917
1312472482.19541097,0.28119686,-0.35937515,-0.69554156
1312472482.23528957,0.28167900,-0.35684451,-0.69405437
1312472482.28442407,0.28146571,-0.35769576,-0.69768894
1312472482.33534646,0.28095126,-0.35807848,-0.69717824
1312472482.38805604,0.28084242,-0.35950890,-0.69462025
1312472482.43647790,0.28176022,-0.35706550,-0.69727349
1312472482.48824978,0.28182849,-0.35848036,-0.69631815
1312472482.53628945,0.28216568,-0.35719636,-0.69738352
1312472482.59252119,0.27969217,-0.35833961,-0.69536746
1312472482.63529158,0.28085706,-0.35711515,-0.69181508
1312472482.68849325,0.28017408,-0.35988691,-0.69438720
1312472482.73530197,0.28283095,-0.35643545,-0.69761956
1312472482.78433299,0.27864671,-0.35920462,-0.69689965
1312472482.84331799,0.28093418,-0.35682559,-0.69503832
1312472482.89933825,0.28138667,-0.35569108,-0.69421428
